Wind_Speed
42 43 44 44 44 44 45 45 45 46 46 47 48 49 49 49 49 49 50 51 51 52 52 52 52 52 52 52 53 53 52 52 51 51 51 50 50 50
43 44 44 45 45 45 45 46 47 48 49 49 50 51 51 50 51 50 51 52 52 53 53 53 53 53 53 53 54 54 53 53 52 52 52 52 51 51
43 44 44 45 46 46 47 48 49 50 50 51 52 52 52 52 51 51 52 53 53 54 54 54 54 54 55 55 55 55 54 54 54 54 53 53 53 52
43 43 44 46 47 48 49 50 51 51 52 52 52 52 52 53 53 54 53 54 54 55 55 55 55 56 56 56 56 56 55 55 55 55 54 54 54 54
44 45 46 47 47 48 49 50 51 51 52 52 53 54 54 55 54 55 55 55 55 56 56 56 56 57 57 57 57 56 56 56 55 55 55 55 54 54
46 47 48 49 49 50 50 50 51 52 52 53 53 54 55 55 55 55 55 55 55 56 56 56 56 56 56 56 56 56 56 56 56 56 55 55 54 54
48 49 50 50 51 52 52 52 53 53 53 53 53 54 54 54 55 56 56 56 56 56 56 57 57 56 56 56 56 56 56 56 56 56 55 55 55 55
50 51 51 51 52 52 53 53 52 52 53 53 53 53 54 55 56 56 56 56 56 56 56 55 55 55 56 56 56 56 56 56 55 55 55 55 55 54
51 51 51 52 52 52 53 53 52 53 53 53 53 54 55 55 56 57 57 57 56 55 55 54 54 54 55 55 55 55 55 55 54 54 54 54 54 53
52 52 52 52 52 52 52 52 52 52 53 53 54 54 55 56 56 56 56 56 55 55 55 54 54 54 54 54 54 54 53 53 53 53 54 53 52 51
53 53 53 53 53 52 52 52 52 52 53 53 54 55 56 56 56 56 55 55 54 54 55 54 53 53 52 52 52 52 52 53 53 53 53 52 51 51
52 52 53 53 53 53 54 54 53 53 54 54 54 55 55 56 56 56 55 55 54 54 54 54 54 53 52 51 51 52 52 53 53 52 52 51 51 50
51 51 52 52 53 53 54 54 54 54 54 54 55 55 55 55 55 55 55 55 54 54 54 54 53 53 51 50 50 51 51 51 51 50 49 48 48 48
51 51 51 52 52 53 53 54 54 54 54 55 55 54 54 54 55 55 55 55 54 54 53 53 52 52 51 50 49 48 49 48 47 46 45 45 46 46
49 50 51 51 51 52 53 53 53 53 54 54 54 54 54 54 54 54 54 54 54 53 53 52 52 51 50 49 48 47 47 46 45 45 44 44 44 44
48 50 50 51 51 51 52 52 53 53 53 53 53 53 54 54 54 53 52 52 52 51 51 50 50 49 48 47 47 46 45 44 43 43 42 42 41 41
49 50 50 50 51 51 51 51 52 52 52 52 52 52 52 52 52 51 51 51 50 49 48 48 48 47 46 45 45 44 43 42 40 40 39 39 38 38
49 50 50 51 50 50 50 50 51 51 51 51 50 50 50 50 50 50 49 49 48 47 46 46 45 44 44 43 43 42 41 39 38 37 37 37 36 35
48 49 49 48 48 48 48 49 49 49 48 48 48 48 48 48 48 47 47 46 45 45 44 43 43 42 42 41 40 40 38 37 36 36 35 34 33 32
48 47 46 46 47 47 47 47 46 45 45 45 46 46 45 45 45 44 43 43 43 42 41 41 40 40 39 39 37 36 36 35 34 33 32 30 29 28
46 45 45 45 45 45 45 44 44 43 43 43 43 43 43 42 41 41 41 40 40 39 38 37 37 37 37 36 34 33 33 33 32 31 29 28 27 26
45 44 44 44 43 43 42 41 41 40 40 40 40 40 39 39 39 39 38 37 36 36 35 35 35 35 34 33 32 31 30 30 29 28 26 26 25 24
44 43 43 42 42 41 40 39 38 38 37 37 37 37 37 37 37 36 35 34 33 33 32 32 31 31 30 30 29 28 27 26 25 25 25 24 23 23
Wind_Direction
267 268 270 271 273 274 275 276 276 276 277 278 279 280 281 282 284 284 285 285 285 285 286 286 287 287 287 287 288 288 288 288 288 288 288 288 288 287
268 269 271 272 273 275 276 276 277 278 279 279 280 281 282 282 284 284 285 285 285 285 286 287 287 287 287 287 287 287 287 286 287 287 288 288 288 288
267 268 270 272 274 275 276 276 278 279 280 281 282 283 283 284 284 285 285 285 286 286 286 286 286 286 286 287 286 286 286 286 287 287 287 288 288 288
270 272 273 274 275 277 277 278 279 281 282 283 284 284 284 284 284 285 285 285 286 286 286 286 285 285 286 286 286 285 285 286 286 286 287 288 288 288
271 272 273 274 275 277 278 279 280 282 283 284 284 284 284 284 285 285 285 285 285 286 285 285 285 285 285 285 285 285 285 285 286 287 287 287 287 287
271 272 272 273 274 276 278 279 280 282 282 283 284 284 285 285 285 285 285 284 285 286 285 285 285 285 285 284 284 284 284 285 286 286 286 287 287 287
272 272 272 273 275 276 277 279 280 281 282 283 284 284 285 286 286 286 287 286 285 285 286 286 285 285 285 284 284 284 285 285 285 286 286 286 286 286
272 273 274 275 277 278 278 280 280 281 282 283 284 285 286 286 287 288 288 287 286 286 286 286 286 286 286 285 285 284 285 285 285 285 285 285 285 286
274 274 275 275 276 277 279 279 280 281 282 283 284 285 286 287 288 288 288 288 288 287 286 286 287 287 287 287 287 286 285 285 285 285 285 285 285 284
275 275 275 276 277 279 279 279 280 281 283 284 285 285 286 287 288 289 290 289 288 288 288 288 287 287 288 288 287 286 285 285 285 285 285 284 284 283
275 276 276 277 278 279 280 280 281 282 283 284 285 286 287 288 289 289 290 289 289 289 289 289 288 287 288 288 287 286 285 285 286 286 285 283 283 282
276 276 277 277 277 279 280 281 281 282 282 283 284 286 287 288 289 289 289 289 289 289 289 289 289 288 288 288 287 286 286 286 286 285 284 283 282 281
276 277 278 279 279 280 281 281 282 282 283 284 285 286 286 287 288 289 289 289 289 289 289 289 289 289 288 288 287 287 287 287 286 284 284 283 282 282
277 277 278 279 279 280 281 282 283 284 284 285 285 286 287 287 288 288 288 289 289 289 289 289 288 288 288 288 288 288 288 287 286 285 284 283 282 282
278 278 279 279 280 281 282 283 284 284 285 285 285 286 286 287 288 288 288 289 289 289 288 288 288 288 287 287 287 287 287 286 285 284 283 282 282 282
278 279 279 279 280 281 282 283 284 284 285 285 286 286 286 287 288 288 288 289 289 289 288 288 287 287 287 287 287 287 286 286 285 284 283 283 283 283
279 279 280 280 281 281 282 283 283 284 285 285 286 286 287 287 287 288 288 289 289 289 288 287 287 287 287 287 287 287 287 286 285 284 283 283 283 282
280 280 280 281 281 281 282 283 283 284 284 285 285 286 286 287 287 288 288 288 288 289 288 287 287 287 287 288 288 287 286 285 285 284 283 283 283 282
281 282 282 282 282 282 283 283 284 284 284 284 285 286 287 288 289 288 288 288 289 289 289 288 287 287 288 288 287 287 286 285 284 284 283 282 281 280
282 283 283 283 283 283 283 283 284 284 285 285 286 287 288 289 289 289 289 289 289 289 289 289 289 288 288 289 288 287 286 286 285 283 282 281 280 279
283 283 283 283 283 283 283 283 284 285 285 286 287 288 289 289 289 290 291 291 290 290 289 289 289 289 289 289 289 287 286 286 284 282 280 278 277 277
283 282 283 283 283 283 283 283 284 284 285 286 287 288 289 289 290 290 291 290 290 290 289 289 289 289 289 289 288 287 286 285 283 281 278 277 277 275
282 282 282 282 282 282 283 283 283 284 285 286 287 289 290 291 291 290 290 290 291 290 290 291 290 290 290 289 287 286 286 284 281 279 278 277 276 276
Height
5723 5723 5723 5723 5723 5722 5722 5721 5721 5721 5720 5719 5716 5714 5712 5710 5708 5706 5704 5701 5699 5696 5693 5691 5688 5686 5683 5680 5678 5675 5672 5669 5667 5664 5661 5659 5656 5654
5712 5712 5712 5712 5712 5711 5710 5709 5708 5708 5707 5706 5704 5701 5699 5697 5695 5692 5690 5687 5685 5682 5679 5677 5674 5671 5669 5666 5663 5661 5658 5655 5653 5650 5647 5645 5642 5639
5701 5701 5701 5700 5700 5699 5698 5697 5695 5694 5693 5692 5690 5687 5685 5683 5680 5678 5675 5673 5670 5667 5665 5662 5659 5656 5654 5651 5649 5646 5643 5641 5638 5635 5632 5630 5627 5624
5690 5689 5689 5688 5687 5686 5685 5684 5682 5680 5679 5678 5676 5673 5671 5668 5666 5663 5661 5658 5655 5652 5650 5647 5644 5641 5639 5636 5633 5631 5628 5626 5623 5620 5617 5615 5612 5609
5677 5677 5676 5675 5674 5673 5672 5670 5668 5667 5665 5663 5661 5659 5656 5654 5651 5648 5646 5643 5640 5637 5634 5631 5629 5626 5623 5620 5617 5615 5612 5610 5607 5604 5601 5598 5596 5593
5664 5664 5663 5662 5660 5659 5658 5656 5655 5653 5651 5649 5646 5644 5641 5639 5636 5633 5631 5628 5625 5621 5618 5615 5613 5610 5607 5604 5602 5599 5596 5593 5590 5588 5585 5582 5580 5577
5651 5650 5649 5647 5646 5645 5644 5642 5640 5639 5636 5634 5632 5629 5627 5624 5621 5618 5615 5613 5610 5606 5603 5600 5597 5594 5590 5587 5584 5582 5579 5576 5574 5571 5569 5566 5564 5561
5637 5636 5635 5633 5632 5631 5630 5628 5626 5624 5622 5620 5617 5615 5612 5609 5606 5603 5600 5597 5595 5592 5588 5584 5580 5578 5574 5571 5567 5565 5562 5559 5557 5555 5552 5550 5547 5544
5623 5622 5621 5619 5618 5617 5615 5613 5611 5609 5607 5605 5603 5600 5597 5594 5591 5588 5584 5581 5578 5575 5571 5569 5565 5562 5558 5554 5551 5548 5546 5543 5540 5538 5536 5533 5531 5528
5608 5607 5606 5605 5604 5602 5601 5599 5597 5595 5592 5590 5588 5585 5581 5578 5575 5572 5568 5565 5563 5559 5554 5553 5550 5547 5543 5539 5535 5532 5529 5527 5525 5522 5519 5517 5515 5512
5594 5593 5592 5590 5589 5587 5586 5584 5583 5580 5577 5575 5573 5569 5566 5562 5559 5556 5552 5549 5547 5544 5539 5537 5535 5532 5529 5525 5520 5516 5514 5511 5509 5506 5503 5501 5499 5497
5579 5578 5577 5575 5573 5572 5571 5569 5567 5565 5563 5560 5558 5554 5551 5547 5543 5540 5536 5533 5530 5529 5525 5521 5518 5515 5514 5511 5506 5502 5499 5496 5493 5490 5487 5485 5483 5481
5564 5563 5562 5560 5559 5557 5555 5554 5552 5550 5548 5545 5542 5539 5536 5532 5528 5525 5521 5517 5514 5512 5509 5505 5503 5499 5497 5496 5492 5488 5484 5480 5477 5475 5472 5470 5468 5466
5549 5548 5547 5545 5544 5542 5540 5539 5536 5534 5532 5529 5527 5524 5520 5517 5514 5510 5506 5502 5499 5496 5493 5489 5487 5484 5481 5479 5477 5474 5470 5466 5463 5461 5458 5456 5454 5452
5534 5533 5532 5531 5529 5527 5526 5523 5521 5519 5516 5514 5511 5508 5505 5502 5498 5495 5491 5487 5484 5480 5477 5474 5471 5469 5466 5464 5462 5459 5456 5453 5449 5447 5445 5443 5440 5438
5519 5518 5517 5516 5514 5512 5511 5508 5506 5503 5500 5498 5495 5493 5490 5486 5483 5480 5476 5473 5469 5466 5462 5458 5456 5453 5451 5448 5446 5444 5441 5439 5437 5433 5431 5429 5428 5426
5505 5504 5503 5501 5499 5497 5495 5493 5490 5488 5485 5482 5480 5477 5474 5471 5468 5465 5461 5458 5455 5452 5448 5445 5441 5439 5437 5435 5432 5430 5427 5425 5423 5421 5419 5418 5416 5414
5490 5489 5488 5486 5484 5482 5480 5477 5475 5472 5470 5467 5465 5462 5459 5456 5453 5450 5446 5443 5441 5438 5434 5431 5428 5426 5424 5422 5419 5417 5415 5413 5411 5409 5407 5406 5405 5403
5475 5474 5472 5470 5469 5467 5465 5462 5460 5458 5455 5453 5450 5448 5445 5442 5439 5435 5432 5430 5427 5424 5421 5418 5415 5413 5411 5410 5408 5405 5403 5401 5399 5398 5396 5395 5394 5393
5460 5459 5458 5456 5454 5452 5450 5448 5446 5444 5441 5439 5436 5434 5431 5428 5425 5422 5420 5417 5414 5411 5409 5406 5403 5401 5399 5398 5396 5395 5391 5390 5388 5387 5386 5385 5384 5384
5447 5445 5444 5442 5440 5438 5436 5434 5432 5430 5428 5426 5423 5421 5418 5415 5413 5410 5407 5404 5402 5399 5397 5395 5392 5390 5387 5386 5385 5384 5382 5380 5378 5377 5377 5376 5376 5375
5433 5431 5430 5428 5426 5425 5423 5421 5419 5417 5415 5413 5411 5408 5406 5403 5401 5398 5396 5393 5391 5388 5386 5384 5382 5379 5377 5376 5375 5374 5372 5371 5369 5368 5367 5367 5367 5367
5419 5418 5416 5415 5413 5412 5410 5409 5407 5405 5403 5401 5399 5397 5395 5392 5390 5387 5385 5383 5380 5378 5376 5374 5372 5370 5368 5367 5365 5364 5363 5362 5361 5361 5360 5359 5359 5359